Regional Weather Roundup
Issued by NWS Northern Indiana

Home | Current Version | Previous Version | Text Only | Print | Product List | Glossary On
Versions: 1 2 3 4 5 6 7 8 9 10 11 12 13 14 15 16 17 18 19 20 21 22 23 24 25 26 27 28 29 30 31 32 33 34 35 36 37 38 39 40 41 42 43 44 45 46 47 48 49 50
000
ASUS43 KIWX 051710
RWRIWX

KIWX WEATHER ROUNDUP
NATIONAL WEATHER SERVICE NORTHERN INDIANA
100 PM EDT SAT SEP 05 2015

NOTE: "FAIR" INDICATES FEW OR NO CLOUDS BELOW 12,000 FEET WITH NO
SIGNIFICANT WEATHER AND/OR OBSTRUCTIONS TO VISIBILITY.

* THESE STATIONS ARE NOT UNDER NWS QUALITY CONTROL. THEY ALSO MAY NOT
  REPORT WEATHER SUCH AS PRECIPITATION OR FOG.

INZ001>027-051800-
NORTHERN INDIANA

CITY           SKY/WX    TMP DP  RH WIND       PRES   REMARKS
GARY*          CLOUDY    73  66  78 E14       30.16R
VALPARAISO     RAIN      66  64  93 E3        30.19R
MICHIGAN CITY* RAIN      64  64 100 CALM      30.17S
LAPORTE*       LGT RAIN  69  69 100 CALM      30.17F
KNOX*          CLOUDY    68  68 100 SE6       30.17F
SOUTH BEND     LGT RAIN  68  66  93 SW8       30.17F
ELKHART*       LGT RAIN  68  66  94 W9        30.17F
GOSHEN         CLOUDY    73  65  75 W12       30.16F
MONTICELLO*    CLOUDY    73  68  83 NE9       30.16R
LOGANSPORT*    CLOUDY    75  59  57 N13       30.18R
ROCHESTER*     RAIN      73  68  83 NW7       30.22R
WARSAW*        CLOUDY    70  63  78 NW8       30.19R
ANGOLA*        CLOUDY    70  59  68 S3        30.20S
FORT WAYNE     PTSUNNY   77  69  76 SE9       30.17F
HUNTINGTON*    PTSUNNY   81  67  63 NE3       30.16S
PERU/GRISSOM   CLOUDY    80  67  63 N13       30.17R
MARION*        MOSUNNY   84  57  39 W6        30.16F

$$
INZ028>050-051800-
CENTRAL INDIANA

CITY           SKY/WX    TMP DP  RH WIND       PRES   REMARKS
LAFAYETTE      PTSUNNY   79  65  62 CALM      30.15S
KOKOMO*        CLOUDY    81  66  61 W8        30.17R
MUNCIE*        SUNNY     83  68  60 NW9       30.16F
INDIANAPOLIS   PTSUNNY   87  68  52 CALM      30.14F

$$
MIZ043>046-050>051-056>058-064>065-071>073-077>080-051800-
SOUTHWEST LOWER MICHIGAN

CITY           SKY/WX    TMP DP  RH WIND       PRES   REMARKS
BATTLE CREEK   LGT RAIN  72  68  87 S3        30.17R
BENTON HARBOR  LGT RAIN  70  67  90 SW7       30.15S
COLDWATER*     LGT RAIN  70  69  96 SE8       30.17F
HILLSDALE*     LGT RAIN  70  70 100 CALM      30.21F
HOLLAND        CLOUDY    73  68  84 S7        30.15R
GRAND RAPIDS   CLOUDY    75  70  84 SW10      30.15R
KALAMAZOO      CLOUDY    72  68  87 S5        30.15F
STURGIS*       PTSUNNY   72  68  88 E8        30.17S
THREE RIVERS*  PTSUNNY   72  68  87 CALM      30.16S

$$
OHZ001>008-015>018-024>025-051800-
NORTHWEST OHIO

CITY           SKY/WX    TMP DP  RH WIND       PRES   REMARKS
WAUSEON*       PTSUNNY   79  68  69 S8G15     30.18S
DEFIANCE       PTSUNNY   80  64  58 SE9       30.17F
FINDLAY        LGT RAIN  72  68  87 CALM      30.17F
TOLEDO EXPRESS PTSUNNY   80  66  62 SW12      30.15F
TOLEDO METCALF CLOUDY    75  67  76 SW8       30.16F
LIMA           PTSUNNY   78  68  71 NE6       30.19S

$$
AND FOR LAKE MICHIGAN COASTAL AND OPEN LAKE BUOY OBSERVATIONS

STATION/POSITION TEMP    WIND        PRES    VSBY  WAVE
                 AIR SEA DIR/SP/G                  HT/PER
                 (F)     (DEG/KT/KT) (MB)    (MI)  (FT/S)
CALUMET HARBOR    72      50/  6/ 10   N/A
MICHIGAN CITY     67     100/  6/  7   N/A
BURNS HARBOR      69     260/  4/  4 1022.0
SAINT JOSEPH      71     170/  6/ 10 1021.7F
SOUTH LAKE BUOY   71 71  210/ 14/ 16 1019.5F         1/ 3
4 MI NW BRIDGMAN  70 72  220/ 12/ 14   N/A           2/ 3
MICHIGAN CITY     69 73  180/ 10/ 14   N/A           2/ 4

$$
&&


USA.gov is the U.S. government's official web portal to all federal, state and local government web resources and services.